DECAYED

OBJECT D, 62300 (Decayed)

Orbit data source: Space-Track

You're viewing an Uncataloged Satellite

Recently launched and/or uncataloged satellites may have evolving metadata. Metadata may include but not limited to: Owner, Maufacturer, Bus, Motor, and Mission.

OBJECT D, 62300 was a satellite owned by Tsinghua (CN) in LEO that was launched on Thu, 29 Apr 2021 UTC via a CHANG ZHENG 7 launch vehicle from the Wenchang Satellite Launch Center (WSC). Unknown objects in Earth's orbit typically refer to objects detected orbiting the Earth but have not yet been identified or cataloged. These objects could be anything from previously untracked satellites, spent rocket stages, debris from satellite collisions, or even natural meteoroids temporarily captured by Earth's gravity. This object's orbit decayed before it could be identified.

Not visible in the next 10 days
Identifier
62300, 2021-035D
Orbit
Decayed
Country
Flag of CNCN / PRC
Related business
Manufacturer
Tsinghua
Mission
Decayed Amateur Imaging
Bus & Motor
NAXING, Unknown motor
Mass
20 kg wet, 20 kg dry
Launch date (UTC)
2021-04-29 (5 years ago)
Launch vehicle
CHANG ZHENG 7
Launch site
Wenchang Satellite Launch Center (WSC)
Object type
Unknown
Shape & HBR
Box, 0.2 m
Radar Cross Section
0.240 m², Medium (>0.1 m² and < 1m²)

Expand to show TLE details & history
Last TLE update: 1 year ago

TLE from 1 year ago
0 OBJECT D
1 62300U 21035D   25097.38271167  .05906026  79878-5  85032-3 0  9993
2 62300  41.4453  74.4490 0003712 227.4544 132.6007 16.33695907 18347
Epoch: 2025-04-07T09:11Z
TLE epoch observation values (Epoch: 2025-04-07T09:11:06.288Z)
Latitude
-0.00003°
Longitude
100.77383°
Altitude
183.859 km
Speed
7.797 km/s
True Right ascension
04h 57m 47s
True Declination
0° 00' 00"
Sunlit
Object was in daylight at epoch
Visualization orbit readout
Latitude
Unknown
Longitude
Unknown
Altitude
Unknown
Speed
Unknown
Apparent Right ascension
Unknown
Apparent Declination
Unknown
Sunlit
N/A
Visualization observer readout
Local Sidereal Time
17:53:27
Azimuth
Unknown
Elevation
Unknown
Doppler factor
Unknown
Orbital elements
Apogee altitude
187.368 km
Perigee altitude
182.496 km
Semi-major axis
6,563.069 km
Eccentricity
0.00037
Inclination
41.4453°
RAAN
74.449°
Arg. of periapsis
227.4544°
True anomaly
132.632°
Mean anomaly
132.6007°
Eccentric anomaly
132.61635°
Mean motion
4.08209 °/min
Orbital period
88.19 mins
BSTAR
0.00085032
Loading maneuver chart data...
Computing Atmospheric mass density...
Loading historical data...
Loading historical data...
Loading historical data...
Loading historical data...
Loading historical data...
Loading historical data...
Loading historical data...
Other satellites on launch #35 in the year 2021 (2021-04-29 UTC)

Documentation

Showing up to 5 results
|